Regional Weather Roundup
Issued by NWS

Home | Current Version | Previous Version | Text Only | Print | Product List | Glossary On
Versions: 1 2 3 4 5 6 7 8 9 10 11 12 13 14 15 16 17 18 19 20 21 22 23 24 25 26 27 28 29 30 31 32 33 34 35 36 37 38 39 40 41 42 43 44 45 46 47 48 49 50
000
ASUS44 KLIX 182310
RWRLA
LOUISIANA WEATHER ROUNDUP
NATIONAL WEATHER SERVICE NEW ORLEANS LA
600 PM CDT THU SEP 18 2014

NOTE: "FAIR" INDICATES FEW OR NO CLOUDS BELOW 12,000 FEET WITH NO
      SIGNIFICANT WEATHER AND/OR OBSTRUCTIONS TO VISIBILITY.
      SKY/WX - SKY CONDITION AND SIGNIFICANT WEATHER.
      TMP - AIR TEMPERATURE.    DP   - DEWPOINT TEMPERATURE.
      RH  - RELATIVE HUMIDITY.  PRES - PRESSURE.
      HX  - HEAT INDEX.         WCI  - WIND CHILL INDEX.

*  THESE STATIONS ARE NOT NWS OR FAA STATIONS AND ARE NOT UNDER
   NWS QUALITY CONTROL.

LAZ040-048-061>063-065-066-069-190000-
SOUTHEAST LOUISIANA

CITY           SKY/WX    TMP DP  RH WIND       PRES   REMARKS
N.O. AUDUBON     N/A     79  71  77 MISG        N/A
N.O. INTL ARPT CLOUDY    81  68  64 S15G24    29.87R
N.O. LAKEFRONT CLOUDY    79  70  74 S14       29.87S
N.O. DOWNTOWN* FAIR      81  66  61 SE6       29.88R
SLIDELL        PTSUNNY   84  74  71 SE5       29.86F
BATON ROUGE    CLOUDY    81  73  76 W3        29.87R
BOOTHVILLE     CLOUDY    83  74  74 S8        29.88R
BELLE CHASSE   LGT RAIN  75  67  76 CALM      29.87S
BOGALUSA*      FAIR      81  68  64 CALM      29.89F
GALLIANO*      NOT AVBL
NEW ROADS*     FAIR      82  74  77 N3        29.87S
GONZALES*      TSTM      73  73 100 NW3       29.87S
HAMMOND*       CLOUDY    84  70  61 S6        29.89R
HOUMA*         PTSUNNY   82  64  54 CALM      29.87S
PORT FOURCHON* PTCLDY    81  75  83 SW8       29.90S

$$

LAZ041-044-053-054-190000-
SOUTHWEST LOUISIANA

CITY           SKY/WX    TMP DP  RH WIND       PRES   REMARKS
LAKE CHARLES   LGT RAIN  75  74  96 CALM      29.87F
LAFAYETTE      CLOUDY    81  76  84 SW5       29.87S
PATTERSON      CLOUDY    81  73  78 E5        29.90S
SALT POINT       N/A     84  76  76 VRB5      29.87R
NEW IBERIA     LGT RAIN  82  76  81 NW3       29.88R
CHENAULT AIRPK CLOUDY    77  75  94 S3        29.88S

$$

LAZ027-028-190000-
CENTRAL LOUISIANA

CITY           SKY/WX    TMP DP  RH WIND       PRES   REMARKS
FORT POLK      LGT RAIN  76  73  91 CALM      29.90R
ALEXANDRIA INT CLOUDY    82  74  76 S6        29.85S
ALEXANDRIA     CLOUDY    83  76  79 S3        29.87S

$$

LAZ001-002-190000-
NORTHWEST LOUISIANA

CITY           SKY/WX    TMP DP  RH WIND       PRES   REMARKS
SHREVEPORT     PTSUNNY   84  72  67 S8        29.87R
BARKSDALE AFB  CLOUDY    85  72  65 S12       29.87R
DTN SHREVEPORT PTSUNNY   84  70  62 SE5       29.86R

$$

LAZ014-016-190000-
NORTHEAST LOUISIANA

CITY           SKY/WX    TMP DP  RH WIND       PRES   REMARKS
MONROE         CLOUDY    82  74  76 SW6       29.88R
TALLULAH       PTSUNNY   85  69  58 E12       29.88R

$$



USA.gov is the U.S. government's official web portal to all federal, state and local government web resources and services.